Date String (YYYY-MM-DD hh:mm:ss) UTC,Instrument flags,Ambient pressure (hPa),Sample flow (lpm),Bypass flow (lpm),Sample temperature (°C),Ambient temperature (°C),ASC tube jacket temperature (°C),LED temperature (°C),Box temperature (°C),Sample RH (%),Span deviation,Mass concentration (μg/m³),Mass concentration (μg/m³),Mass concentration (μg/m³)
DateTimeUTC,F1_M11,P_M11,Q1_M11,Q2_M11,T1_M11,T2_M11,T3_M11,T4_M11,T5_M11,U1_M11,ZSPAN_M11,X0_M11,X2_M11,X1_M11
2022-09-23 15:00:00,,0825.5,5.01,0.00,29.8,28.4,00.0,38.5,31.6,17.0,0000.0,0007.56,0002.74,0002.14
2022-09-23 15:01:00,,0825.5,5.00,0.00,29.8,28.5,00.0,38.5,31.7,13.0,0000.0,0007.53,0002.73,0002.16
2022-09-23 15:02:00,,0825.6,4.99,0.00,29.8,28.5,00.0,38.5,31.7,12.1,0000.0,0007.60,0002.77,0002.16
2022-09-23 15:03:00,,0825.5,5.01,0.00,29.8,28.6,00.0,38.5,31.7,11.8,0000.0,0007.66,0002.79,0002.14
2022-09-23 15:04:00,,0825.6,4.99,0.00,29.9,28.6,00.0,38.5,31.8,11.7,0000.0,0007.52,0002.76,0002.12
2022-09-23 15:05:00,,0825.6,5.00,0.00,29.9,28.7,00.0,38.5,31.7,12.6,0000.0,0006.52,0002.69,0002.08
2022-09-23 15:06:00,,0825.5,5.01,0.00,29.9,28.7,00.0,38.5,31.8,12.3,0000.0,0006.40,0002.67,0002.06
2022-09-23 15:07:00,,0825.5,5.00,0.00,29.9,28.7,00.0,38.6,31.8,11.9,0000.0,0005.91,0002.63,0002.05
2022-09-23 15:08:00,,0825.6,5.01,0.00,29.9,28.8,00.0,38.6,31.8,12.3,0000.0,0006.46,0002.62,0002.03
2022-09-23 15:09:00,,0825.6,4.99,0.00,29.9,28.7,00.0,38.6,31.9,12.9,0000.0,0006.72,0002.54,0001.96
2022-09-23 15:10:00,,0825.5,5.01,0.00,30.0,28.8,00.0,38.6,31.9,13.4,0000.0,0005.53,0002.42,0001.83
2022-09-23 15:11:00,,0825.5,5.00,0.00,30.0,28.8,00.0,38.6,31.9,13.2,0000.0,0005.73,0002.29,0001.70
2022-09-23 15:12:00,,0825.6,4.99,0.00,30.0,28.8,00.0,38.6,31.9,13.0,0000.0,0006.88,0002.27,0001.65
2022-09-23 15:13:00,,0825.6,5.01,0.00,30.0,28.8,00.0,38.7,31.9,12.9,0000.0,0006.85,0002.23,0001.63
2022-09-23 15:14:00,,0825.5,4.99,0.00,30.0,28.8,00.0,38.7,31.9,13.0,0000.0,0006.99,0002.19,0001.62
2022-09-23 15:15:00,,0825.6,5.01,0.00,30.0,28.7,00.0,38.7,31.9,11.7,0000.0,0007.43,0002.17,0001.61
2022-09-23 15:16:00,,0825.5,5.01,0.00,30.0,28.7,00.0,38.7,31.9,11.5,0000.0,0007.44,0002.19,0001.61
2022-09-23 15:17:00,,0825.4,4.99,0.00,30.0,28.7,00.0,38.7,31.9,10.6,0000.0,0007.49,0002.17,0001.58
2022-09-23 15:18:00,,0825.4,4.99,0.00,30.0,28.7,00.0,38.7,31.9,10.2,0000.0,0007.59,0002.21,0001.56
2022-09-23 15:19:00,,0825.4,5.01,0.00,30.0,28.6,00.0,38.7,31.9,10.5,0000.0,0007.05,0002.20,0001.53
2022-09-23 15:20:00,,0825.5,4.99,0.00,30.0,28.6,00.0,38.7,31.9,10.9,0000.0,0006.49,0002.24,0001.51
2022-09-23 15:21:00,,0825.5,5.01,0.00,30.0,28.6,00.0,38.7,31.9,11.7,0000.0,0006.55,0002.26,0001.49
2022-09-23 15:22:00,,0825.5,4.99,0.00,30.0,28.7,00.0,38.7,31.9,11.2,0000.0,0006.90,0002.23,0001.46
2022-09-23 15:23:00,,0825.5,5.01,0.00,30.0,28.6,00.0,38.7,31.9,11.1,0000.0,0005.78,0002.21,0001.43
2022-09-23 15:24:00,,0825.5,5.00,0.00,30.0,28.6,00.0,38.7,31.9,10.7,0000.0,0005.75,0002.21,0001.39
2022-09-23 15:25:00,,0825.5,4.99,0.00,30.1,28.7,00.0,38.7,31.9,11.1,0000.0,0005.37,0002.16,0001.37
2022-09-23 15:26:00,,0825.5,5.01,0.00,30.1,28.7,00.0,38.7,31.9,10.3,0000.0,0005.61,0002.15,0001.36
2022-09-23 15:27:00,,0825.6,4.99,0.00,30.1,28.7,00.0,38.7,31.9,10.2,0000.0,0006.17,0002.13,0001.35
2022-09-23 15:28:00,,0825.6,5.01,0.00,30.1,28.7,00.0,38.8,31.9,10.6,0000.0,0006.22,0002.14,0001.34
2022-09-23 15:29:00,,0825.6,4.99,0.00,30.1,28.7,00.0,38.8,31.9,10.9,0000.0,0006.98,0002.13,0001.34
2022-09-23 15:30:00,,0825.7,5.02,0.00,30.1,28.8,00.0,38.8,31.9,11.0,0000.0,0007.42,0002.10,0001.34
2022-09-23 15:31:00,,0825.7,4.99,0.00,30.1,28.8,00.0,38.8,32.0,10.6,0000.0,0007.42,0002.05,0001.34
2022-09-23 15:32:00,,0825.6,5.01,0.00,30.1,28.8,00.0,38.8,32.0,12.1,0000.0,0007.56,0002.05,0001.34
2022-09-23 15:33:00,,0825.6,5.00,0.00,30.1,28.9,00.0,38.8,32.0,11.4,0000.0,0007.16,0002.08,0001.35
2022-09-23 15:34:00,,0825.6,4.99,0.00,30.2,28.9,00.0,38.8,32.0,11.2,0000.0,0007.27,0002.07,0001.34
2022-09-23 15:35:00,,0825.6,5.01,0.00,30.2,28.9,00.0,38.8,32.0,11.9,0000.0,0007.45,0002.05,0001.36
2022-09-23 15:36:00,,0825.6,5.00,0.00,30.2,28.9,00.0,38.8,32.0,12.8,0000.0,0007.93,0002.10,0001.38
2022-09-23 15:37:00,,0825.7,5.00,0.00,30.2,28.9,00.0,38.8,32.0,11.4,0000.0,0007.78,0002.10,0001.39
2022-09-23 15:38:00,,0825.7,5.00,0.00,30.2,28.9,00.0,38.9,32.0,12.5,0000.0,0007.51,0002.13,0001.41
2022-09-23 15:39:00,,0825.6,5.02,0.00,30.2,28.9,00.0,38.9,32.1,11.6,0000.0,0007.44,0002.12,0001.42
2022-09-23 15:40:00,,0825.7,4.96,0.00,30.2,29.0,00.0,38.9,32.1,10.8,0000.0,0007.34,0002.10,0001.41
2022-09-23 15:41:00,,0825.6,4.99,0.00,30.3,29.0,00.0,38.9,32.1,10.6,0000.0,0006.22,0002.09,0001.42
2022-09-23 15:42:00,,0825.6,5.01,0.00,30.3,29.0,00.0,38.9,32.1,11.4,0000.0,0006.09,0002.15,0001.43
2022-09-23 15:43:00,,0825.6,4.99,0.00,30.3,29.0,00.0,38.9,32.1,11.4,0000.0,0006.04,0002.19,0001.42
2022-09-23 15:44:00,,0825.6,5.00,0.00,30.3,29.1,00.0,38.9,32.1,12.5,0000.0,0005.74,0002.18,0001.43
2022-09-23 15:45:00,,0825.7,5.01,0.00,30.3,29.1,00.0,38.9,32.2,14.0,0000.0,0006.16,0002.18,0001.44
2022-09-23 15:46:00,,0825.9,4.99,0.00,30.3,29.1,00.0,38.9,32.2,14.1,0000.0,0006.90,0002.24,0001.48
2022-09-23 15:47:00,,0825.9,5.00,0.00,30.4,29.1,00.0,39.0,32.2,12.0,0000.0,0007.56,0002.29,0001.49
2022-09-23 15:48:00,,0826.0,5.01,0.00,30.4,29.1,00.0,39.0,32.2,11.5,0000.0,0008.13,0002.28,0001.49
2022-09-23 15:49:00,,0825.9,4.99,0.00,30.4,29.2,00.0,39.0,32.3,12.0,0000.0,0007.80,0002.24,0001.48
2022-09-23 15:50:00,,0825.8,5.01,0.00,30.4,29.2,00.0,39.0,32.3,11.0,0000.0,0007.78,0002.23,0001.46
2022-09-23 15:51:00,,0825.8,5.00,0.00,30.4,29.2,00.0,39.0,32.3,11.4,0000.0,0007.81,0002.23,0001.44
2022-09-23 15:52:00,,0825.8,5.00,0.00,30.4,29.2,00.0,39.1,32.3,10.3,0000.0,0007.92,0002.27,0001.45
2022-09-23 15:53:00,,0825.7,5.01,0.00,30.4,29.2,00.0,39.1,32.3,10.1,0000.0,0007.95,0002.24,0001.45
2022-09-23 15:54:00,,0825.6,4.99,0.00,30.5,29.2,00.0,39.1,32.3,09.8,0000.0,0007.99,0002.23,0001.45
2022-09-23 15:55:00,,0825.6,5.00,0.00,30.5,29.2,00.0,39.1,32.3,09.7,0000.0,0008.16,0002.19,0001.44
2022-09-23 15:56:00,,0825.6,5.00,0.00,30.5,29.2,00.0,39.1,32.3,10.1,0000.0,0008.56,0002.17,0001.43
2022-09-23 15:57:00,,0825.7,5.00,0.00,30.5,29.2,00.0,39.1,32.3,10.4,0000.0,0008.03,0002.14,0001.39
2022-09-23 15:58:00,,0825.7,4.99,0.00,30.5,29.2,00.0,39.1,32.3,10.0,0000.0,0007.31,0002.06,0001.37
2022-09-23 15:59:00,,0825.7,5.00,0.00,30.5,29.2,00.0,39.1,32.4,09.9,0000.0,0006.20,0002.01,0001.35
